"Pseudo-MPEC" for P11UQsG

Created 2024 Jun 19 21:22:06 UT using Find_Orb

Click here for an explanation of pseudo-MPECs

 
 Astrometry: 
     P11UQsG* C2024 05 30ObAaAstrometryiw^!m8a3-redacted;9iI6AJen?pI#w:Pi]YRXF51
     P11UQsG  C2024 05 30AuUYvK7clickjhereY+Y\u!aas/iX^@r400nhi7xHgTs$D,/Xi+YF51
     P11UQsG  C2024 05 30Pl,for9LPq0pCySGBv63N8(1%Mrh+explanationask?J*l!VKxUF51

Station data:
(F51) Pan-STARRS 1, Haleakala  (N20.707234 W156.255910)  US/Hawaii.
   Observers J. Bulger, T. Lowe, A. Schultz, M. Willman. Measurers K.
   Chambers, S. Chastel, T. de Boer, L. Denneau, J. Fairlamb, H. Flewelling,
   M. Huber, C.-C. Lin, E. Magnier, Y. Ramanjooloo, R. Wainscoat, R. Weryk.
   1.8-m Ritchey-Chrétien + CCD.

Orbital elements:  P11UQsG
   Perihelion 2024 Feb 5.13625 +/- 197 TT =  3:16:11 (JD 2460345.63625)
Epoch 2024 May 30.0 TT = JDT 2460460.5   Earth MOID: 0.0580      AutoNEOCP
M   8.46554396 +/- 54               (J2000 ecliptic)
n   0.07370074 +/- 0.148            Peri.  246.19242 +/- 110
a   5.63406005 +/- 7.52             Node   251.71549 +/- 35
e   0.8597023 +/- 0.281             Incl.   21.98432 +/- 27
P  13.37                   H 20.21  G  0.15   U 11.5  SR
q 0.79044551 +/- 0.759    Q 10.4776745 +/- 35.3
From 3 observations 2024 May 30 (29.9 min); mean residual 0".18
Residuals in arcseconds: 
240530 F51  .03+  .18-    240530 F51  .07-  .36+    240530 F51  .04+  .18-    

Ephemerides (geocentric):
Date (UTC) HH   RA             Dec           delta  r     elong  mag " sig PA
---- --------  ------------   ------------  ------ ------ -----  --- --------
2024 06 19 21  15 32 18.614   -20 05 46.54  1.2607 2.1837 146.9 23.2  34d  71
2024 06 19 22  15 32 17.745   -20 05 17.14  1.2614 2.1842 146.9 23.2  34d  71
2024 06 19 23  15 32 16.880   -20 04 47.77  1.2622 2.1847 146.8 23.2  34d  71
2024 06 20 00  15 32 16.019   -20 04 18.45  1.2629 2.1851 146.8 23.2  34d  71
2024 06 20 01  15 32 15.162   -20 03 49.17  1.2636 2.1856 146.7 23.2  34d  71
2024 06 20 02  15 32 14.309   -20 03 19.93  1.2644 2.1861 146.7 23.2  34d  71
2024 06 20 03  15 32 13.460   -20 02 50.73  1.2651 2.1865 146.7 23.2  34d  71
2024 06 20 04  15 32 12.614   -20 02 21.58  1.2659 2.1870 146.6 23.3  34d  71
2024 06 20 05  15 32 11.773   -20 01 52.47  1.2666 2.1875 146.6 23.3  34d  71
2024 06 20 06  15 32 10.935   -20 01 23.41  1.2674 2.1879 146.5 23.3  34d  71
2024 06 20 07  15 32 10.101   -20 00 54.38  1.2681 2.1884 146.5 23.3  34d  71
2024 06 20 08  15 32 09.271   -20 00 25.40  1.2689 2.1889 146.4 23.3  34d  71
2024 06 20 09  15 32 08.445   -19 59 56.46  1.2696 2.1893 146.4 23.3  34d  71
2024 06 20 10  15 32 07.622   -19 59 27.56  1.2703 2.1898 146.3 23.3  34d  71
2024 06 20 11  15 32 06.804   -19 58 58.71  1.2711 2.1903 146.3 23.3  34d  71
2024 06 20 12  15 32 05.989   -19 58 29.90  1.2718 2.1908 146.3 23.3  35d  71
2024 06 20 13  15 32 05.178   -19 58 01.13  1.2726 2.1912 146.2 23.3  35d  71
2024 06 20 14  15 32 04.371   -19 57 32.40  1.2733 2.1917 146.2 23.3  35d  71
2024 06 20 15  15 32 03.568   -19 57 03.71  1.2741 2.1922 146.1 23.3  35d  71
2024 06 20 16  15 32 02.768   -19 56 35.07  1.2748 2.1926 146.1 23.3  35d  71
2024 06 20 17  15 32 01.973   -19 56 06.47  1.2756 2.1931 146.0 23.3  35d  71
2024 06 20 18  15 32 01.181   -19 55 37.91  1.2763 2.1936 146.0 23.3  35d  71
2024 06 20 19  15 32 00.393   -19 55 09.39  1.2771 2.1940 145.9 23.3  35d  71
2024 06 20 20  15 31 59.609   -19 54 40.92  1.2778 2.1945 145.9 23.3  35d  71
2024 06 20 21  15 31 58.828   -19 54 12.49  1.2786 2.1950 145.9 23.3  35d  71
2024 06 20 22  15 31 58.051   -19 53 44.10  1.2793 2.1954 145.8 23.3  35d  71
2024 06 20 23  15 31 57.279   -19 53 15.75  1.2801 2.1959 145.8 23.3  35d  71
2024 06 21 00  15 31 56.509   -19 52 47.44  1.2808 2.1964 145.7 23.3  35d  71
2024 06 21 01  15 31 55.744   -19 52 19.18  1.2816 2.1969 145.7 23.3  35d  71
2024 06 21 02  15 31 54.983   -19 51 50.95  1.2823 2.1973 145.6 23.3  35d  71
2024 06 21 03  15 31 54.225   -19 51 22.77  1.2831 2.1978 145.6 23.3  35d  71
2024 06 21 04  15 31 53.471   -19 50 54.63  1.2838 2.1983 145.5 23.3  35d  71
2024 06 21 05  15 31 52.720   -19 50 26.53  1.2846 2.1987 145.5 23.3  35d  71
2024 06 21 06  15 31 51.974   -19 49 58.48  1.2853 2.1992 145.5 23.3  35d  71
2024 06 21 07  15 31 51.231   -19 49 30.46  1.2861 2.1997 145.4 23.3  35d  71
2024 06 21 08  15 31 50.492   -19 49 02.49  1.2869 2.2001 145.4 23.3  35d  71
2024 06 21 09  15 31 49.757   -19 48 34.56  1.2876 2.2006 145.3 23.3  35d  71
2024 06 21 10  15 31 49.025   -19 48 06.67  1.2884 2.2011 145.3 23.3  35d  71
2024 06 21 11  15 31 48.298   -19 47 38.82  1.2891 2.2015 145.2 23.3  35d  71
2024 06 21 12  15 31 47.574   -19 47 11.01  1.2899 2.2020 145.2 23.3  35d  71
2024 06 21 13  15 31 46.853   -19 46 43.25  1.2906 2.2025 145.1 23.3  35d  71
2024 06 21 14  15 31 46.137   -19 46 15.52  1.2914 2.2030 145.1 23.3  35d  71
2024 06 21 15  15 31 45.424   -19 45 47.84  1.2921 2.2034 145.1 23.3  35d  71
2024 06 21 16  15 31 44.715   -19 45 20.20  1.2929 2.2039 145.0 23.3  35d  71
2024 06 21 17  15 31 44.009   -19 44 52.60  1.2936 2.2044 145.0 23.3  35d  71
2024 06 21 18  15 31 43.307   -19 44 25.04  1.2944 2.2048 144.9 23.3  35d  71
2024 06 21 19  15 31 42.609   -19 43 57.52  1.2952 2.2053 144.9 23.3  35d  71
2024 06 21 20  15 31 41.915   -19 43 30.04  1.2959 2.2058 144.8 23.3  35d  71